Oklahoma City, OK

10:27 PM CST on December 04, 2016 (GMT -0600)
Will Rogers World

Weather History for KOKC - September, 2014

Change the Weather History Date:

Thursday, September 4, 2014

  Actual Average Record
Temperature  
Mean Temperature 87 °F 78 °F  
Max Temperature 98 °F 89 °F 107 °F (1998)
Min Temperature 75 °F 68 °F 46 °F (1974)
Degree Days  
Heating Degree Days 0 0  
Month to date heating degree days 0 0  
Since 1 July heating degree days 0 0  
Cooling Degree Days 22 13  
Month to date cooling degree days 82 55  
Year to date cooling degree days 1755 1792  
Growing Degree Days 36 (Base 50)    
Moisture  
Dew Point 62 °F    
Average Humidity 48    
Maximum Humidity 69    
Minimum Humidity 26    
Precipitation  
Precipitation 0.00 in 0.12 in 1.74 in (1940)
Month to date precipitation T 0.50  
Year to date precipitation 20.73 25.39  
Sea Level Pressure  
Sea Level Pressure 29.92 in    
Wind  
Wind Speed 15 mph (South)    
Max Wind Speed 26 mph    
Max Gust Speed 33 mph    
Visibility 10 miles    
Events      
T = Trace of Precipitation, MM = Missing Value Source: NWS Daily Summary

Daily Weather History Graph

Daily Weather History Graph

Search for Another Location

Airport or City:

Trip Planner

Search our weather history database for the weather conditions in past years. The results will help you decide how hot, cold, wet, or windy it might be!

Date:

Astronomy

Sep. 04, 2014 Rise Set
Actual Time 7:05 AM CDT 7:53 PM CDT
Civil Twilight 6:39 AM CDT 8:18 PM CDT
Nautical Twilight 6:08 AM CDT 8:49 PM CDT
Astronomical Twilight 5:37 AM CDT 9:20 PM CDT
Moon 4:25 PM CDT (9/4) 2:03 AM CDT (9/4)
Length of Visible Light 13h 39m
Length of Day
12h 48m
Waxing Gibbous, 74% of the Moon is Illuminated
Sep 4
Waxing Gibbous
Sep 8
Full
Sep 15
Last Quarter
Sep 24
New
Oct 1
First Quarter

Hourly Weather History & Observations

Time (CDT) Temp. Heat Index Dew Point Humidity Pressure Visibility Wind Dir Wind Speed Gust Speed Precip Events Conditions
12:52 AM 82.0 °F 83.1 °F 63.0 °F 52% 29.86 in 10.0 mi South 11.5 mph - N/A   Partly Cloudy
1:52 AM 81.0 °F 82.2 °F 63.0 °F 54% 29.86 in 10.0 mi South 11.5 mph - N/A   Partly Cloudy
2:52 AM 80.1 °F 81.5 °F 63.0 °F 56% 29.86 in 10.0 mi South 11.5 mph - N/A   Partly Cloudy
3:52 AM 78.8 °F - 64.4 °F 61% 29.94 in 10.0 mi South 10.4 mph - N/A   Partly Cloudy
4:52 AM 77.0 °F - 64.0 °F 64% 29.88 in 10.0 mi South 10.4 mph - N/A   Partly Cloudy
5:52 AM 77.0 °F - 64.0 °F 64% 29.90 in 10.0 mi South 11.5 mph - N/A   Partly Cloudy
6:52 AM 75.2 °F - 64.4 °F 69% 29.97 in 10.0 mi South 10.4 mph - N/A   Partly Cloudy
7:52 AM 77.0 °F - 64.9 °F 66% 29.93 in 10.0 mi South 12.7 mph - N/A   Clear
8:52 AM 81.0 °F 83.0 °F 66.0 °F 60% 29.94 in 10.0 mi SSW 16.1 mph 21.9 mph N/A   Partly Cloudy
9:52 AM 84.0 °F 86.3 °F 66.0 °F 55% 29.96 in 10.0 mi SSW 17.3 mph 24.2 mph N/A   Partly Cloudy
10:52 AM 88.0 °F 89.6 °F 64.9 °F 46% 29.97 in 10.0 mi SSW 21.9 mph 28.8 mph N/A   Partly Cloudy
11:52 AM 91.0 °F 91.9 °F 63.0 °F 39% 29.96 in 10.0 mi SSW 19.6 mph 32.2 mph N/A   Partly Cloudy
12:52 PM 93.9 °F 94.8 °F 62.1 °F 35% 29.94 in 10.0 mi South 21.9 mph 28.8 mph N/A   Partly Cloudy
1:52 PM 96.1 °F 96.0 °F 60.1 °F 30% 29.92 in 10.0 mi SSW 24.2 mph 33.4 mph N/A   Partly Cloudy
2:52 PM 96.1 °F 96.0 °F 60.1 °F 30% 29.91 in 10.0 mi SSW 21.9 mph 27.6 mph N/A   Partly Cloudy
3:52 PM 96.8 °F 96.2 °F 59.0 °F 28% 29.94 in 10.0 mi SSW 20.7 mph 27.6 mph N/A   Partly Cloudy
4:52 PM 97.0 °F 96.5 °F 59.0 °F 28% 29.88 in 10.0 mi SSW 23.0 mph 28.8 mph N/A   Scattered Clouds
5:52 PM 96.1 °F 94.8 °F 56.7 °F 27% 29.88 in 10.0 mi South 19.6 mph 26.5 mph N/A   Scattered Clouds
6:52 PM 91.9 °F 90.8 °F 57.9 °F 32% 29.88 in 10.0 mi South 13.8 mph - N/A   Mostly Cloudy
7:52 PM 90.0 °F 90.0 °F 61.0 °F 38% 29.89 in 10.0 mi South 12.7 mph - N/A   Mostly Cloudy
8:52 PM 87.1 °F 87.8 °F 63.0 °F 44% 29.90 in 10.0 mi SSE 11.5 mph - N/A   Scattered Clouds
9:52 PM 84.2 °F 85.0 °F 62.6 °F 48% 29.98 in 10.0 mi SSE 10.4 mph - N/A   Scattered Clouds
10:52 PM 82.0 °F 83.4 °F 64.0 °F 54% 29.95 in 10.0 mi SSE 9.2 mph - N/A   Scattered Clouds
11:52 PM 80.1 °F 81.7 °F 64.0 °F 58% 29.96 in 10.0 mi SSE 8.1 mph - N/A   Scattered Clouds